Flag for Norway Weather past 2 weeks in Sandnes, Norway

Now
63 °F

Clear.


Feels Like: 63 °F
Forecast: 62 / 77 °F
Wind: 3 mph from Southeast

Location: Stavanger / Sola

Current Time: Jul 25, 2014 at 6:02:07 AM

Latest Report: Jul 25, 2014 at 4:50 AM


Visibility: 10 mi

Pressure: 30.15 "Hg

Humidity: 83%

Dew point: 57 °F

Location of SandnesLocation

Historic Weather in Sandnes — Graph

°F

Sandnes temperature yesterday

Maximum temperature yesterday: 82 °F (at 11:50 AM)
Minimum temperature yesterday: 64 °F (at 1:20 AM)
Average temperature yesterday: 73 °F

Past Weeks' High & Low Weather Summary

 TemperatureHumidityPressure
High84 °F (Jul 10, 1:20 PM)94% (Jul 10, 4:50 AM)30.30 "Hg (Jul 10, 4:50 AM)
Low55 °F (Jul 19, 4:50 AM)37% (Jul 10, 11:50 AM)29.65 "Hg (Jul 14, 12:50 AM)
Average68 °F70%30.03 "Hg
* Reported Jul 10 4:50 AM — Jul 25 4:50 AM, Sandnes, Weather by CustomWeather, © 2014

Note: Actual official high and low records may vary slightly from our data, if they occured in-between our weather recording intervals... More about our weather records

Advertising

Sandnes weather history for previous 24 hours

 ConditionsComfort  
Time TempWeatherWind HumidityBarometerVisibility
4:50 AM
Jul 25
63 °FClear.3 mph83%30.15 "Hg10 mi
3:50 AM64 °FClear.3 mph78%30.15 "Hg10 mi
2:50 AM66 °FClear.1 mph78%30.18 "Hg10 mi
1:50 AM68 °FClear.2 mph73%30.15 "Hg10 mi
12:50 AM70 °FClear.2 mph69%30.15 "Hg10 mi
12:20 AM70 °FPassing clouds.3 mph69%30.15 "HgN/A
11:50 PM
Jul 24
72 °FClear.1 mph65%30.15 "Hg10 mi
11:20 PM72 °FClear.2 mph65%30.18 "Hg10 mi
10:50 PM73 °FSunny.1 mph61%30.15 "Hg10 mi
10:20 PM73 °FSunny.2 mph65%30.15 "Hg10 mi
9:50 PM75 °FScattered clouds.1 mph57%30.18 "HgN/A
9:20 PM77 °FScattered clouds.No wind54%30.15 "HgN/A
8:50 PM77 °FPassing clouds.2 mph57%30.15 "HgN/A
8:20 PM75 °FPassing clouds.5 mph65%30.18 "HgN/A
7:50 PM75 °FPassing clouds.5 mph65%30.18 "HgN/A
7:20 PM77 °FPassing clouds.5 mph61%30.18 "HgN/A
6:50 PM77 °FPassing clouds.5 mph57%30.18 "HgN/A
6:20 PM77 °FScattered clouds.6 mph61%30.18 "HgN/A
5:50 PM77 °FScattered clouds.5 mph61%30.18 "HgN/A
5:20 PM75 °FScattered clouds.6 mph65%30.18 "HgN/A
4:50 PM73 °FScattered clouds.8 mph74%30.18 "HgN/A
4:20 PM77 °FScattered clouds.9 mph65%30.18 "HgN/A
3:50 PM77 °FPassing clouds.10 mph65%30.18 "HgN/A
3:20 PM77 °FScattered clouds.9 mph65%30.18 "HgN/A
2:50 PM79 °FScattered clouds.8 mph58%30.18 "HgN/A
2:20 PM77 °FScattered clouds.6 mph65%30.21 "HgN/A
1:50 PM81 °FPassing clouds.7 mph58%30.18 "HgN/A
1:20 PM79 °FPassing clouds.7 mph61%30.18 "HgN/A
12:50 PM81 °FPassing clouds.10 mph62%30.18 "HgN/A
12:20 PM82 °FPassing clouds.9 mph58%30.18 "HgN/A
11:50 AM82 °FPassing clouds.7 mph51%30.18 "HgN/A
11:20 AM81 °FSunny.6 mph54%30.18 "Hg10 mi
10:50 AM79 °FSunny.5 mph61%30.18 "Hg10 mi
10:20 AM77 °FSunny.2 mph65%30.18 "Hg10 mi
9:50 AM75 °FPassing clouds.3 mph69%30.18 "HgN/A
9:20 AM73 °FSunny.2 mph74%30.18 "Hg10 mi
8:50 AM73 °FSunny.1 mph78%30.18 "Hg10 mi
8:20 AM70 °FSunny.1 mph83%30.21 "Hg10 mi
7:50 AM70 °FSunny.1 mph83%30.21 "Hg10 mi
7:20 AM66 °FSunny.3 mph88%30.21 "Hg10 mi
6:50 AM64 °FSunny.2 mph94%30.21 "Hg10 mi
6:20 AM64 °FSunny.1 mph94%30.21 "Hg10 mi
Weather by CustomWeather, © 2014

See weather overviewHow to use our weather pages